Weather History for Cape Girardeau, MO

Change the Weather History Date:

Wednesday, January 30, 2013

  Actual Average Record
Temperature  
Mean Temperature 44 °F 34 °F  
Max Temperature 56 °F 44 °F 63 °F (1967)
Min Temperature 32 °F 25 °F -5 °F (1966)
Degree Days  
Heating Degree Days 21 31  
Month to date heating degree days 840 955  
Since 1 July heating degree days 2464 2706  
Cooling Degree Days 0 0  
Month to date cooling degree days 0 0  
Year to date cooling degree days 0 0  
Moisture  
Dew Point 41 °F    
Average Humidity 76    
Maximum Humidity 93    
Minimum Humidity 58    
Precipitation  
Precipitation 0.05 in 0.12 in 4.81 in (1982)
Month to date precipitation 3.58 3.34  
Year to date precipitation 3.58 3.34  
Sea Level Pressure  
Sea Level Pressure 29.57 in    
Wind  
Wind Speed 17 mph (WSW)    
Max Wind Speed 32 mph    
Max Gust Speed 41 mph    
Visibility 10 miles    
Events Rain    
T = Trace of Precipitation, MM = Missing Value Source: NWS Daily Summary

Daily Weather History Graph

Daily Weather History Graph

Search for Another Location

Airport:

Trip Planner

Search our weather history database for the weather conditions in past years. The results will help you decide how hot, cold, wet, or windy it might be!

Date:

Astronomy

Jan. 30, 2013 Rise Set
Actual Time 7:02 AM CST 5:21 PM CST
Civil Twilight 6:35 AM CST 5:48 PM CST
Nautical Twilight 6:03 AM CST 6:19 PM CST
Astronomical Twilight 5:33 AM CST 6:50 PM CST
Moon 9:12 PM CST (1/30) 8:36 AM CST (1/30)
Length of Visible Light 11h 13m
Length of Day
10h 18m
Waning Gibbous, 87% of the Moon is Illuminated
Jan 30
Waning Gibbous
Feb 3
Last Quarter
Feb 10
New
Feb 17
First Quarter
Feb 25
Full

Hourly Weather History & Observations

Time (CST) Temp. Windchill Dew Point Humidity Pressure Visibility Wind Dir Wind Speed Gust Speed Precip Events Conditions
12:53 AM 53.1 °F - 51.1 °F 93% 29.52 in 7.0 mi East 6.9 mph - 0.01 in Rain Light Rain
1:53 AM 53.1 °F - 51.1 °F 93% 29.52 in 8.0 mi SE 5.8 mph - 0.02 in Rain Light Rain
2:35 AM 53.6 °F - 51.8 °F 94% 29.50 in 9.0 mi SE 8.1 mph - 0.01 in Rain Light Rain
2:53 AM 53.1 °F - 51.1 °F 93% 29.52 in 10.0 mi South 10.4 mph - 0.01 in Rain Light Rain
3:17 AM 53.6 °F - 51.8 °F 94% 29.50 in 10.0 mi SE 9.2 mph - 0.00 in Rain Light Rain
3:48 AM 51.8 °F - 51.8 °F 100% 29.46 in 10.0 mi SE 11.5 mph - 0.00 in   Overcast
3:53 AM 52.0 °F - 51.1 °F 97% 29.45 in 10.0 mi SE 10.4 mph - 0.00 in   Overcast
4:53 AM 53.1 °F - 51.1 °F 93% 29.47 in 10.0 mi South 9.2 mph - N/A   Overcast
5:53 AM 53.1 °F - 51.1 °F 93% 29.46 in 10.0 mi South 10.4 mph - N/A   Mostly Cloudy
6:53 AM 53.1 °F - 51.1 °F 93% 29.46 in 10.0 mi South 17.3 mph 27.6 mph N/A   Overcast
7:53 AM 53.1 °F - 51.1 °F 93% 29.47 in 10.0 mi SSW 13.8 mph 20.7 mph N/A   Overcast
8:11 AM 53.6 °F - 51.8 °F 94% 29.47 in 10.0 mi SSW 15.0 mph - N/A   Overcast
8:53 AM 54.0 °F - 51.1 °F 90% 29.45 in 10.0 mi SSW 17.3 mph 27.6 mph N/A   Overcast
9:48 AM 55.4 °F - 51.8 °F 88% 29.45 in 10.0 mi SSW 19.6 mph 27.6 mph N/A   Overcast
9:53 AM 55.0 °F - 51.1 °F 86% 29.45 in 10.0 mi SSW 17.3 mph 25.3 mph N/A   Overcast
10:29 AM 53.6 °F - 48.2 °F 82% 29.44 in 10.0 mi West 18.4 mph - 0.00 in Rain Light Rain
10:49 AM 53.6 °F - 50.0 °F 88% 29.44 in 10.0 mi WSW 16.1 mph - 0.01 in   Mostly Cloudy
10:53 AM 54.0 °F - 48.9 °F 83% 29.44 in 10.0 mi WSW 17.3 mph - 0.01 in   Mostly Cloudy
11:05 AM 50.0 °F - 44.6 °F 82% 29.45 in 10.0 mi WNW 20.7 mph 29.9 mph 0.00 in Rain Light Rain
11:48 AM 46.4 °F 37.4 °F 41.0 °F 81% 29.50 in 10.0 mi West 28.8 mph 35.7 mph 0.00 in   Overcast
11:53 AM 46.9 °F - 39.9 °F 77% 29.49 in 10.0 mi West 24.2 mph 35.7 mph 0.00 in   Overcast
12:20 PM 46.4 °F 37.7 °F 37.4 °F 71% 29.50 in 10.0 mi West 26.5 mph 34.5 mph N/A   Overcast
12:53 PM 46.9 °F - 36.0 °F 66% 29.50 in 10.0 mi West 24.2 mph - N/A   Partly Cloudy
1:53 PM 46.0 °F 37.4 °F 32.0 °F 58% 29.53 in 10.0 mi West 25.3 mph 33.4 mph N/A   Overcast
2:53 PM 41.0 °F 31.6 °F 32.0 °F 70% 29.60 in 10.0 mi WNW 20.7 mph 31.1 mph N/A   Overcast
3:53 PM 37.9 °F 27.1 °F 27.0 °F 65% 29.66 in 10.0 mi WNW 23.0 mph 34.5 mph N/A   Overcast
4:53 PM 36.0 °F 23.5 °F 24.1 °F 62% 29.72 in 10.0 mi WNW 27.6 mph 36.8 mph N/A   Overcast
5:53 PM 34.0 °F 21.5 °F 24.1 °F 67% 29.76 in 10.0 mi WNW 24.2 mph 32.2 mph N/A   Overcast
6:53 PM 34.0 °F 23.4 °F 24.1 °F 67% 29.81 in 10.0 mi WNW 17.3 mph - N/A   Overcast
7:53 PM 34.0 °F 25.0 °F 24.1 °F 67% 29.85 in 10.0 mi WNW 12.7 mph - N/A   Overcast
8:53 PM 33.1 °F 22.2 °F 23.0 °F 66% 29.88 in 10.0 mi West 17.3 mph 23.0 mph N/A   Overcast
9:53 PM 33.1 °F 23.0 °F 21.0 °F 61% 29.91 in 10.0 mi WNW 15.0 mph - N/A   Overcast
10:53 PM 33.1 °F 23.0 °F 21.9 °F 64% 29.94 in 10.0 mi West 15.0 mph - N/A   Overcast
11:53 PM 32.0 °F 18.6 °F 19.9 °F 61% 29.97 in 10.0 mi West 25.3 mph - N/A   Overcast